| time (UTC) | temp C | wind direction | speed KPH | gust KPH | rain 1hr cm | rain 24hr cm | rain mn cm | humidity % | barometer mb |
| 20260505193757 | 25 | 132 | 6.4 | 14.5 | 0.00 | 0.00 | 0.00 | 35 | 1007.0 |
| 20260505192357 | 25 | 139 | 8.0 | 14.5 | 0.00 | 0.00 | 0.00 | 39 | 1007.1 |
| 20260505190957 | 24 | 157 | 8.0 | 12.9 | 0.00 | 0.00 | 0.00 | 38 | 1007.1 |
| 20260505185557 | 24 | 176 | 8.0 | 11.3 | 0.00 | 0.00 | 0.00 | 42 | 1007.1 |
| 20260505184157 | 23 | 144 | 9.7 | 16.1 | 0.00 | 0.00 | 0.00 | 41 | 1007.2 |
| 20260505182757 | 23 | 143 | 6.4 | 11.3 | 0.00 | 0.00 | 0.00 | 44 | 1007.2 |
| 20260505181358 | 23 | 193 | 8.0 | 11.3 | 0.00 | 0.00 | 0.00 | 48 | 1007.3 |
| 20260505175958 | 22 | 212 | 8.0 | 11.3 | 0.00 | 0.00 | 0.00 | 46 | 1007.3 |
| 20260505174558 | 22 | 160 | 6.4 | 12.9 | 0.00 | 0.00 | 0.00 | 49 | 1007.4 |
| 20260505173158 | 22 | 136 | 6.4 | 12.9 | 0.00 | 0.00 | 0.00 | 49 | 1007.3 |
| 20260505171758 | 22 | 172 | 6.4 | 12.9 | 0.00 | 0.00 | 0.00 | 48 | 1007.3 |
| 20260505170358 | 21 | 144 | 6.4 | 11.3 | 0.00 | 0.00 | 0.00 | 49 | 1007.3 |
| 20260505164958 | 21 | 183 | 3.2 | 8.0 | 0.00 | 0.00 | 0.00 | 48 | 1007.3 |
| 20260505163558 | 21 | 176 | 1.6 | 6.4 | 0.00 | 0.00 | 0.00 | 48 | 1007.2 |
| 20260505162158 | 20 | 165 | 1.6 | 4.8 | 0.00 | 0.00 | 0.00 | 50 | 1007.1 |
| 20260505160758 | 20 | 169 | 3.2 | 4.8 | 0.00 | 0.00 | 0.00 | 51 | 1007.1 |
| 20260505152558 | 18 | 139 | 1.6 | 3.2 | 0.00 | 0.00 | 0.00 | 53 | 1006.9 |
| 20260505151158 | 18 | 94 | 1.6 | 4.8 | 0.00 | 0.00 | 0.00 | 52 | 1006.9 |
| 20260505140159 | 17 | 236 | 0.0 | 1.6 | 0.00 | 0.00 | 0.00 | 52 | 1006.2 |
| 20260505123759 | 16 | 169 | 0.0 | 4.8 | 0.00 | 0.00 | 0.00 | 49 | 1005.4 |
| 20260505122359 | 17 | 146 | 1.6 | 6.4 | 0.00 | 0.00 | 0.00 | 47 | 1005.2 |
| 20260505120959 | 18 | 169 | 1.6 | 4.8 | 0.00 | 0.00 | 0.00 | 43 | 1005.0 |
| 20260505115559 | 19 | 333 | 8.0 | 14.5 | 0.00 | 0.00 | 0.00 | 40 | 1004.7 |
| 20260505114159 | 20 | 349 | 12.9 | 19.3 | 0.00 | 0.00 | 0.00 | 39 | 1004.6 |
| 20260505112759 | 20 | 346 | 16.1 | 24.1 | 0.00 | 0.00 | 0.00 | 40 | 1004.6 |
| 20260505111400 | 20 | 353 | 17.7 | 27.4 | 0.00 | 0.00 | 0.00 | 39 | 1004.5 |
| 20260505101800 | 20 | 356 | 17.7 | 29.0 | 0.00 | 0.00 | 0.00 | 38 | 1004.0 |
| 20260505100400 | 21 | 350 | 19.3 | 25.7 | 0.00 | 0.00 | 0.00 | 38 | 1003.9 |
| 20260505095000 | 21 | 333 | 19.3 | 29.0 | 0.00 | 0.00 | 0.00 | 38 | 1003.8 |
| 20260505093600 | 21 | 342 | 20.9 | 30.6 | 0.00 | 0.00 | 0.00 | 37 | 1003.7 |
| 20260505092200 | 21 | 332 | 20.9 | 32.2 | 0.00 | 0.00 | 0.00 | 37 | 1003.7 |
| 20260505090800 | 21 | 336 | 20.9 | 33.8 | 0.00 | 0.00 | 0.00 | 37 | 1003.7 |
| 20260505085400 | 21 | 342 | 20.9 | 32.2 | 0.00 | 0.00 | 0.00 | 37 | 1003.7 |
| 20260505084000 | 21 | 340 | 19.3 | 32.2 | 0.00 | 0.00 | 0.00 | 37 | 1003.6 |
| 20260505082600 | 21 | 357 | 19.3 | 29.0 | 0.00 | 0.00 | 0.00 | 38 | 1003.7 |
| 20260505081200 | 21 | 321 | 20.9 | 32.2 | 0.00 | 0.00 | 0.00 | 38 | 1003.7 |
| 20260505075800 | 21 | 342 | 20.9 | 32.2 | 0.00 | 0.00 | 0.00 | 38 | 1003.6 |
| 20260505074401 | 20 | 334 | 19.3 | 30.6 | 0.00 | 0.00 | 0.00 | 39 | 1003.6 |
| 20260505073001 | 21 | 320 | 17.7 | 27.4 | 0.00 | 0.00 | 0.00 | 38 | 1003.4 |
| 20260505071601 | 21 | 348 | 22.5 | 33.8 | 0.00 | 0.00 | 0.00 | 38 | 1003.4 |
| 20260505070201 | 21 | 359 | 24.1 | 30.6 | 0.00 | 0.00 | 0.00 | 37 | 1003.3 |
| 20260505064801 | 21 | 49 | 25.7 | 33.8 | 0.00 | 0.00 | 0.00 | 38 | 1003.2 |
| 20260505063401 | 21 | 3 | 24.1 | 35.4 | 0.00 | 0.00 | 0.00 | 37 | 1003.1 |
| 20260505062001 | 21 | 0 | 22.5 | 33.8 | 0.00 | 0.00 | 0.00 | 36 | 1003.2 |
| 20260505060601 | 21 | 331 | 20.9 | 29.0 | 0.00 | 0.00 | 0.00 | 35 | 1003.1 |
| 20260505055201 | 21 | 17 | 19.3 | 25.7 | 0.00 | 0.00 | 0.00 | 35 | 1003.2 |
| 20260505053801 | 22 | 330 | 20.9 | 37.0 | 0.00 | 0.00 | 0.00 | 34 | 1003.2 |
| 20260505052401 | 21 | 349 | 19.3 | 29.0 | 0.00 | 0.00 | 0.00 | 34 | 1003.2 |
| 20260505051001 | 22 | 319 | 20.9 | 30.6 | 0.00 | 0.00 | 0.00 | 33 | 1003.1 |
| 20260505041402 | 22 | 333 | 17.7 | 22.5 | 0.00 | 0.00 | 0.00 | 31 | 1002.8 |
| 20260505040002 | 22 | 328 | 17.7 | 25.7 | 0.00 | 0.00 | 0.00 | 30 | 1002.6 |
| 20260505034602 | 22 | 341 | 16.1 | 24.1 | 0.00 | 0.00 | 0.00 | 31 | 1002.5 |
| 20260505033202 | 22 | 344 | 16.1 | 29.0 | 0.00 | 0.00 | 0.00 | 31 | 1002.4 |
| 20260505031802 | 22 | 351 | 14.5 | 19.3 | 0.00 | 0.00 | 0.00 | 31 | 1002.3 |
| 20260505030402 | 23 | 349 | 14.5 | 25.7 | 0.00 | 0.00 | 0.00 | 30 | 1002.2 |
| 20260505025002 | 23 | 355 | 17.7 | 22.5 | 0.00 | 0.00 | 0.00 | 29 | 1001.9 |
| 20260505023602 | 25 | 1 | 19.3 | 32.2 | 0.00 | 0.00 | 0.00 | 27 | 1001.9 |
| 20260505022202 | 25 | 344 | 24.1 | 37.0 | 0.00 | 0.00 | 0.00 | 25 | 1002.0 |
| 20260505020802 | 26 | 337 | 25.7 | 38.6 | 0.00 | 0.00 | 0.00 | 25 | 1001.9 |
| 20260505015402 | 26 | 347 | 19.3 | 37.0 | 0.00 | 0.00 | 0.00 | 24 | 1001.9 |
| 20260505014002 | 26 | 351 | 22.5 | 35.4 | 0.00 | 0.00 | 0.00 | 25 | 1001.8 |
| 20260505012602 | 26 | 327 | 22.5 | 33.8 | 0.00 | 0.00 | 0.00 | 24 | 1001.9 |
| 20260505011202 | 27 | 347 | 19.3 | 33.8 | 0.00 | 0.00 | 0.00 | 25 | 1002.0 |
| 20260505005802 | 26 | 349 | 6.4 | 17.7 | 0.00 | 0.00 | 0.00 | 27 | 1001.9 |
| 20260505004403 | 27 | 288 | 1.6 | 4.8 | 0.00 | 0.00 | 0.00 | 27 | 1001.8 |
| 20260505003003 | 28 | 206 | 1.6 | 0.0 | 0.00 | 0.00 | 0.00 | 26 | 1001.7 |
| 20260505001603 | 28 | 226 | 0.0 | 3.2 | 0.00 | 0.00 | 0.00 | 25 | 1001.8 |
| 20260505000204 | 28 | 77 | 1.6 | 1.6 | 0.00 | 0.00 | 0.00 | 25 | 1001.8 |
| 20260504234803 | 28 | 133 | 3.2 | 8.0 | 0.00 | 0.00 | 0.00 | 28 | 1001.7 |
| 20260504233403 | 28 | 188 | 6.4 | 9.7 | 0.00 | 0.00 | 0.00 | 27 | 1001.8 |
| 20260504232003 | 28 | 131 | 4.8 | 9.7 | 0.00 | 0.00 | 0.00 | 28 | 1001.9 |
| 20260504230603 | 28 | 200 | 4.8 | 12.9 | 0.00 | 0.00 | 0.00 | 27 | 1002.0 |
| 20260504225203 | 27 | 102 | 4.8 | 12.9 | 0.00 | 0.00 | 0.00 | 28 | 1002.2 |
| 20260504223803 | 28 | 140 | 6.4 | 11.3 | 0.00 | 0.00 | 0.00 | 28 | 1002.3 |
| 20260504222403 | 28 | 136 | 3.2 | 9.7 | 0.00 | 0.00 | 0.00 | 30 | 1002.5 |
| 20260504221003 | 27 | 159 | 8.0 | 16.1 | 0.00 | 0.00 | 0.00 | 30 | 1002.7 |
| 20260504215603 | 27 | 183 | 6.4 | 14.5 | 0.00 | 0.00 | 0.00 | 28 | 1002.9 |
| 20260504214203 | 27 | 105 | 6.4 | 14.5 | 0.00 | 0.00 | 0.00 | 30 | 1003.0 |
| 20260504212803 | 27 | 173 | 6.4 | 12.9 | 0.00 | 0.00 | 0.00 | 29 | 1003.2 |
| 20260504211403 | 27 | 115 | 6.4 | 9.7 | 0.00 | 0.00 | 0.00 | 29 | 1003.4 |
| 20260504210004 | 27 | 99 | 3.2 | 11.3 | 0.00 | 0.00 | 0.00 | 27 | 1003.6 |
| 20260504204604 | 26 | 86 | 4.8 | 9.7 | 0.00 | 0.00 | 0.00 | 29 | 1003.8 |
| 20260504203204 | 26 | 148 | 4.8 | 16.1 | 0.00 | 0.00 | 0.00 | 27 | 1003.9 |
| 20260504201804 | 26 | 91 | 4.8 | 11.3 | 0.00 | 0.00 | 0.00 | 27 | 1004.0 |
| 20260504200404 | 26 | 126 | 6.4 | 14.5 | 0.00 | 0.00 | 0.00 | 29 | 1004.2 |
| 20260504195004 | 26 | 169 | 6.4 | 12.9 | 0.00 | 0.00 | 0.00 | 29 | 1004.3 |